TimeCDT,TemperatureF,Dew PointF,Humidity,Sea Level PressureIn,VisibilityMPH,Wind Direction,Wind SpeedMPH,Gust SpeedMPH,PrecipitationIn,Events,Conditions,WindDirDegrees,DateUTC
12:53 AM,64.0,45.0,50,29.80,10.0,South,11.5,19.6,N/A,,Clear,190,2013-09-22 05:53:00
1:53 AM,63.0,45.0,52,29.79,10.0,South,10.4,-,N/A,,Clear,180,2013-09-22 06:53:00
2:53 AM,61.0,45.0,56,29.79,10.0,South,10.4,-,N/A,,Clear,170,2013-09-22 07:53:00
3:53 AM,61.0,45.0,56,29.78,10.0,South,9.2,-,N/A,,Clear,170,2013-09-22 08:53:00
4:53 AM,60.1,46.0,60,29.77,10.0,South,9.2,-,N/A,,Clear,190,2013-09-22 09:53:00
5:53 AM,60.1,46.0,60,29.76,10.0,South,10.4,17.3,N/A,,Clear,180,2013-09-22 10:53:00
6:53 AM,57.9,46.9,67,29.77,10.0,South,8.1,-,N/A,,Clear,190,2013-09-22 11:53:00
7:53 AM,57.9,46.9,67,29.79,10.0,South,6.9,-,N/A,,Clear,170,2013-09-22 12:53:00
8:53 AM,62.1,48.0,60,29.80,10.0,South,13.8,-,N/A,,Clear,180,2013-09-22 13:53:00
9:53 AM,68.0,48.9,50,29.79,10.0,South,16.1,23.0,N/A,,Clear,190,2013-09-22 14:53:00
10:53 AM,72.0,51.1,48,29.77,10.0,South,12.7,26.5,N/A,,Clear,170,2013-09-22 15:53:00
11:53 AM,77.0,52.0,42,29.75,10.0,South,13.8,26.5,N/A,,Clear,180,2013-09-22 16:53:00
12:53 PM,81.0,52.0,36,29.72,10.0,South,19.6,29.9,N/A,,Clear,170,2013-09-22 17:53:00
1:53 PM,82.9,51.1,33,29.69,10.0,South,23.0,33.4,N/A,,Clear,180,2013-09-22 18:53:00
2:53 PM,84.0,50.0,31,29.67,10.0,South,25.3,35.7,N/A,,Clear,170,2013-09-22 19:53:00
3:53 PM,84.9,51.1,31,29.65,10.0,SSE,23.0,36.8,N/A,,Clear,160,2013-09-22 20:53:00
4:53 PM,84.9,50.0,30,29.63,10.0,South,23.0,39.1,N/A,,Clear,170,2013-09-22 21:53:00
5:53 PM,82.9,51.1,33,29.63,10.0,SSE,19.6,35.7,N/A,,Clear,160,2013-09-22 22:53:00
6:53 PM,80.1,51.1,36,29.63,10.0,SSE,21.9,27.6,N/A,,Clear,160,2013-09-22 23:53:00
7:53 PM,75.9,51.1,42,29.65,10.0,SE,15.0,23.0,N/A,,Clear,140,2013-09-23 00:53:00
8:53 PM,73.0,51.1,46,29.67,10.0,SE,13.8,23.0,N/A,,Clear,140,2013-09-23 01:53:00
9:53 PM,71.1,51.1,49,29.66,10.0,SSE,15.0,26.5,N/A,,Clear,150,2013-09-23 02:53:00
10:53 PM,68.0,50.0,52,29.67,10.0,SE,10.4,19.6,N/A,,Clear,140,2013-09-23 03:53:00
11:53 PM,64.9,48.9,56,29.66,10.0,SSE,10.4,-,N/A,,Clear,150,2013-09-23 04:53:00